Find Starlink 3816

NORAD ID: 52351 Int'l Des: 2022-045 Owner: SPXS Country: US Constellation: starlink decayed
LEOCIRCULAR

Re-entered — Dec 26, 2022

3D地球を読み込み中...

About Starlink 3816

Starlink 3816 (NORAD 52351) is a starlink constellation satellite (v1.5) launched Apr 29, 2022 by SPXS of US. It re-entered the atmosphere on Dec 26, 2022. with a mass of 297.00 kg.

Starlink 3816について

説明を読み込み中...

高度履歴

Loading altitude history...

軌道要素

1 52351U 22045W 22360.32196648 .38497212 12357-4 26167-2 0 9993
2 52351 53.2012 12.9899 0001299 113.8331 346.1899 16.40598148 39749
Epoch: Dec 26, 2022 • Age: 30597 hours

現在のステータス

Position data unavailable
打ち上げ日 Apr 29, 2022
運用期間 4.1 years
落下予定日 Dec 26, 2022
タイプ internet

技術仕様

分類 Payload
質量 297.00 kg
乾燥質量 275.00 kg
総質量 297.00 kg
長さ 0.20 m
直径 2.80 m
スパン 9.00 m
形状 Box + pan
製造者 SPXS
バスタイプ Starlink
フェーズステータス Unknown Transfer Status
所有者/国 SPXS/US

Most Searched